SM2GSR-2 Weather Reports


time (UTC)temp
F
wind
direction
speed
knots
gust
knots
rain 1hr
in
rain 24hr
in
rain mn
in
humidity
%
barometer
mb
20260901125004 60 285 5.2 8.7 0.00 0.68 0.02 73 997.9
20260901124505 60 302 0.9 10.4 0.00 0.68 0.02 75 997.9
20260901124004 60 281 3.5 10.4 0.00 0.68 0.02 74 997.9
20260901123505 61 298 1.7 6.1 0.00 0.68 0.02 73 997.8
20260901123004 61 288 0.9 7.0 0.00 0.68 0.02 72 997.9
20260901122506 62 294 4.3 10.4 0.00 0.68 0.02 72 997.8
20260901122005 62 243 2.6 7.0 0.00 0.68 0.02 71 997.8
20260901121504 62 299 2.6 7.0 0.00 0.68 0.02 74 997.7
20260901121005 61 252 2.6 8.7 0.00 0.68 0.02 75 997.7
20260901120504 61 268 4.3 8.7 0.00 0.68 0.02 76 997.7
20260901115504 60 293 0.9 7.0 0.00 0.68 0.02 76 997.6
20260901115004 60 326 4.3 10.4 0.00 0.68 0.02 77 997.7
20260901114504 60 307 3.5 7.0 0.00 0.68 0.02 78 997.6
20260901113504 60 302 4.3 8.7 0.00 0.68 0.02 76 997.7
20260901113005 60 281 3.5 8.7 0.00 0.68 0.02 79 997.6
20260901112004 60 282 3.5 7.8 0.00 0.68 0.02 78 997.7
20260901111504 60 296 3.5 7.8 0.00 0.68 0.02 77 997.6
20260901110004 59 318 4.3 7.8 0.00 0.68 0.02 78 997.5
20260901105504 59 291 2.6 7.0 0.00 0.68 0.02 80 997.5
20260901105004 59 290 1.7 4.3 0.00 0.68 0.02 82 997.5
20260901104004 58 297 3.5 7.8 0.00 0.68 0.02 81 997.4
20260901103504 58 292 2.6 8.7 0.00 0.68 0.02 82 997.4
20260901103004 58 318 2.6 6.1 0.00 0.68 0.02 83 997.4
20260901102505 58 319 4.3 10.4 0.00 0.68 0.02 83 997.4
20260901102004 58 310 4.3 7.8 0.00 0.68 0.02 82 997.4
20260901101504 58 304 4.3 7.0 0.00 0.68 0.02 84 997.3
20260901100504 58 263 0.0 4.3 0.00 0.68 0.02 85 997.3
20260901095504 57 283 0.9 4.3 0.00 0.68 0.02 87 997.2
20260901094504 57 339 1.7 6.1 0.00 0.68 0.02 86 997.2
20260901094005 56 289 1.7 7.0 0.00 0.68 0.02 86 997.2
20260901093504 56 287 2.6 7.8 0.00 0.68 0.02 87 997.1
20260901093004 56 276 2.6 8.7 0.00 0.68 0.02 87 997.1
20260901092505 56 289 2.6 12.2 0.00 0.68 0.02 87 997.1
20260901091504 56 309 1.7 6.1 0.00 0.68 0.02 88 997.0
20260901091005 56 299 1.7 6.1 0.00 0.68 0.02 88 997.0
20260901090004 55 323 1.7 10.4 0.00 0.68 0.02 88 997.0
20260901085504 56 305 4.3 8.7 0.00 0.68 0.02 89 996.9
20260901084505 55 304 1.7 6.1 0.00 0.68 0.02 90 996.8
20260901083504 54 294 0.9 5.2 0.00 0.68 0.02 90 996.7
20260901083004 54 271 0.0 2.6 0.00 0.68 0.02 90 996.8
20260901082504 54 306 1.7 5.2 0.00 0.68 0.02 90 996.8
20260901082005 54 301 1.7 6.1 0.00 0.68 0.02 89 996.8
20260901081005 54 268 1.7 5.2 0.00 0.68 0.02 89 996.7
20260901080505 53 293 2.6 8.7 0.00 0.68 0.02 89 996.6
20260901080004 53 267 0.0 7.0 0.00 0.68 0.02 89 996.6
20260901075505 53 288 1.7 6.1 0.01 0.68 0.02 89 996.6
20260901075004 53 254 1.7 6.1 0.02 0.68 0.02 89 996.6
20260901074504 53 276 2.6 6.1 0.02 0.68 0.02 88 996.5
20260901074005 53 235 0.9 5.2 0.02 0.68 0.02 88 996.5
20260901073505 53 272 0.0 0.0 0.02 0.68 0.02 88 996.5
20260901073004 53 218 0.9 4.3 0.02 0.68 0.02 88 996.4
20260901072505 53 274 1.7 6.1 0.02 0.68 0.02 88 996.4
20260901072004 53 280 0.9 2.6 0.02 0.68 0.02 88 996.4
20260901071504 53 280 1.7 6.1 0.02 0.68 0.02 88 996.4
20260901071004 53 255 0.9 5.2 0.02 0.68 0.02 88 996.4
20260901070504 53 282 1.7 6.1 0.02 0.68 0.02 88 996.3
20260901070004 53 285 0.9 5.2 0.02 0.68 0.02 88 996.3
20260901065504 53 282 1.7 5.2 0.01 0.67 0.01 88 996.2
20260901065005 53 277 1.7 6.1 0.00 0.66 0.00 88 996.1
20260901064504 53 291 0.0 0.0 0.00 0.66 0.00 88 996.1
20260901064005 53 291 0.0 0.0 0.00 0.66 0.00 88 996.0
20260901063505 53 288 1.7 6.1 0.00 0.66 0.00 88 996.0
20260901063004 53 242 0.9 2.6 0.00 0.66 0.00 88 996.0
20260901062504 54 239 0.9 2.6 0.00 0.66 0.00 87 996.0
20260901062004 54 239 0.9 2.6 0.00 0.66 0.00 87 996.0
20260901061004 54 236 0.0 2.6 0.00 0.66 0.00 86 995.8
20260901060004 54 236 0.0 0.0 0.00 0.66 0.00 86 995.8
20260901055507 54 236 0.0 0.0 0.00 0.66 0.00 85 995.8
20260901055005 54 219 0.9 2.6 0.00 0.66 0.00 85 995.8
20260901054504 54 262 0.0 4.3 0.00 0.66 0.00 85 995.8
20260901053504 54 231 1.7 4.3 0.00 0.66 0.00 84 995.8
20260901053005 54 294 0.0 0.0 0.00 0.66 0.00 84 995.8
20260901052504 54 294 0.0 0.0 0.00 0.66 0.00 84 995.7
20260901052005 54 294 0.0 0.0 0.00 0.66 0.00 84 995.7
20260901051504 54 294 0.0 0.0 0.00 0.66 0.00 83 995.7
20260901051004 54 294 0.0 0.0 0.00 0.66 0.00 83 995.8
20260901050004 54 294 0.0 0.0 0.00 0.66 0.00 84 995.8
20260901045504 54 294 0.0 0.0 0.00 0.66 0.00 84 995.8
20260901044506 54 294 0.0 0.0 0.00 0.66 0.00 83 995.8
20260901044004 54 294 0.0 5.2 0.00 0.66 0.00 83 995.8
20260901043504 54 220 0.0 0.0 0.00 0.66 0.00 83 995.8
20260901043004 54 220 0.0 0.0 0.00 0.66 0.00 83 995.8
20260901042004 54 219 0.0 0.0 0.00 0.66 0.00 83 995.8
20260901041504 54 219 0.0 2.6 0.00 0.66 0.00 83 995.7
20260901040504 54 219 0.0 0.0 0.00 0.66 0.00 83 995.7
20260901040004 54 219 0.0 0.0 0.00 0.66 0.00 83 995.7
20260901035504 54 219 0.0 0.0 0.00 0.66 0.00 83 995.7
20260901034504 54 219 0.0 0.0 0.00 0.66 0.00 83 995.7
20260901034004 54 219 0.0 0.0 0.00 0.66 0.00 83 995.7
20260901033505 54 219 0.0 0.0 0.00 0.66 0.00 83 995.7
20260901033004 54 219 0.0 0.0 0.00 0.66 0.00 83 995.6
20260901032504 54 219 0.0 0.9 0.00 0.66 0.00 83 995.6
20260901031504 54 219 0.9 4.3 0.00 0.66 0.00 82 995.6
20260901030504 54 217 0.0 0.0 0.00 0.66 0.00 82 995.5
20260901025504 54 155 0.0 4.3 0.00 0.66 0.00 82 995.6
20260901025004 54 155 1.7 4.3 0.00 0.66 0.00 81 995.6
20260901024504 54 155 0.9 2.6 0.00 0.66 0.00 81 995.6
20260901024005 54 155 0.0 0.0 0.00 0.66 0.00 81 995.6
20260901023505 54 155 0.0 0.0 0.00 0.66 0.00 80 995.6
20260901023004 54 155 0.0 0.0 0.00 0.66 0.00 80 995.6
20260901022504 54 155 0.0 0.0 0.00 0.66 0.00 80 995.6
20260901022005 54 155 0.0 0.0 0.00 0.66 0.00 80 995.6
20260901021004 55 155 0.0 0.0 0.00 0.66 0.00 80 995.5
20260901020505 55 155 0.0 0.0 0.00 0.66 0.00 79 995.6
20260901020005 55 155 0.0 0.0 0.00 0.66 0.00 79 995.5
20260901015504 55 155 0.0 0.0 0.00 0.66 0.00 79 995.5
20260901015004 55 155 0.0 0.0 0.00 0.66 0.00 79 995.4
20260901014504 55 155 0.0 0.0 0.00 0.66 0.00 79 995.4
20260901013504 55 155 0.0 0.0 0.00 0.66 0.00 79 995.4
20260901013004 55 155 0.0 0.0 0.00 0.66 0.00 79 995.4
20260901012504 55 155 0.0 0.0 0.00 0.66 0.00 78 995.3
20260901012004 55 155 0.0 0.0 0.00 0.66 0.00 78 995.3
20260901010504 55 155 0.0 0.9 0.00 0.66 0.00 79 995.3
20260901010004 55 155 0.0 0.0 0.00 0.66 0.00 79 995.3
20260901005005 54 155 0.0 0.0 0.00 0.66 0.00 79 995.4
20260901004504 54 155 0.0 0.0 0.00 0.66 0.00 79 995.4
20260901004005 54 155 0.0 0.0 0.00 0.66 0.00 79 995.4
20260901003505 54 155 0.0 0.0 0.00 0.66 0.00 78 995.5
20260901003004 54 155 0.0 0.0 0.00 0.66 0.00 78 995.5
20260901002504 54 155 0.0 0.0 0.00 0.66 0.00 78 995.5
20260901002005 54 155 0.0 0.0 0.00 0.66 0.00 79 995.5
20260901001504 54 155 0.0 0.0 0.00 0.66 0.00 79 995.5
20260901001004 54 155 0.0 0.0 0.00 0.66 0.00 80 995.6
20260901000004 53 155 0.0 0.0 0.00 0.66 0.00 82 995.7
20260831235504 53 155 0.0 0.0 0.00 0.66 0.00 82 995.7
20260831235004 53 155 0.0 0.0 0.00 0.66 0.00 82 995.8
20260831234505 53 155 0.0 0.0 0.00 0.66 0.00 82 995.8
20260831234004 53 155 0.0 0.0 0.00 0.66 0.00 82 995.8
20260831233505 53 155 0.0 0.0 0.00 0.66 0.00 82 995.8
20260831233005 53 155 0.0 0.0 0.00 0.66 0.00 83 995.8
20260831232506 53 155 0.0 0.0 0.00 0.66 0.00 83 995.8
20260831232006 54 155 0.0 0.0 0.00 0.66 0.00 83 995.8
20260831231505 54 155 0.0 0.0 0.00 0.66 0.00 82 995.8
20260831230504 55 155 0.0 0.0 0.00 0.66 0.00 80 995.8
20260831230004 55 155 0.0 0.0 0.00 0.66 0.00 80 995.8
20260831224504 54 155 0.0 0.0 0.00 0.66 0.00 81 996.0
20260831224005 54 155 0.0 0.0 0.00 0.66 0.00 81 996.0
20260831223505 55 155 0.0 0.0 0.00 0.66 0.00 81 996.0
20260831223004 55 155 0.0 0.0 0.00 0.66 0.00 81 996.0
20260831222504 55 155 0.0 0.0 0.00 0.66 0.00 81 996.0
20260831222004 55 155 0.0 0.0 0.00 0.66 0.00 81 996.0
20260831221504 55 155 0.0 0.0 0.00 0.66 0.00 81 996.0
20260831220504 55 155 0.0 0.0 0.00 0.66 0.00 81 996.0
20260831220004 55 155 0.0 0.0 0.00 0.66 0.00 81 996.1
20260831215504 55 155 0.0 0.0 0.00 0.66 0.66 82 996.1
20260831215004 55 155 0.0 0.0 0.00 0.66 0.66 82 996.2
20260831214504 55 155 0.0 0.0 0.00 0.66 0.66 82 996.1
20260831214004 55 155 0.0 0.0 0.00 0.66 0.66 82 996.1
20260831213504 55 155 0.0 0.0 0.00 0.66 0.66 82 996.1
20260831212504 55 155 0.0 0.0 0.00 0.66 0.66 83 996.2
20260831212004 55 155 0.0 0.0 0.00 0.66 0.66 83 996.2
20260831211505 55 155 0.0 0.0 0.00 0.66 0.66 83 996.2
20260831211004 55 155 0.0 0.0 0.01 0.66 0.66 83 996.2
20260831210504 55 155 0.0 0.0 0.03 0.66 0.66 83 996.2
20260831210004 55 155 0.0 0.0 0.04 0.66 0.66 83 996.2
20260831205004 56 155 0.0 0.0 0.07 0.66 0.66 82 996.3
20260831204504 56 155 0.0 0.0 0.08 0.66 0.66 82 996.3
20260831204004 56 155 0.0 0.0 0.09 0.66 0.66 82 996.2
20260831203504 56 155 0.0 0.0 0.10 0.66 0.66 82 996.3
20260831203004 56 155 0.0 0.0 0.10 0.66 0.66 82 996.2
20260831202505 56 155 0.0 0.0 0.10 0.66 0.66 82 996.3
20260831202004 56 155 0.0 0.0 0.10 0.66 0.66 82 996.4
20260831201504 56 155 0.0 0.0 0.10 0.66 0.66 82 996.4
20260831201004 56 155 0.0 0.0 0.09 0.65 0.65 82 996.4
20260831200505 56 155 0.0 0.0 0.07 0.63 0.63 82 996.5
20260831200004 56 155 0.0 0.0 0.06 0.62 0.62 82 996.5
20260831195504 56 155 0.0 0.0 0.04 0.60 0.60 82 996.5
20260831195005 56 155 0.0 0.0 0.03 0.59 0.59 82 996.5
20260831194504 56 155 0.0 0.0 0.02 0.58 0.58 82 996.5
20260831194004 56 155 0.0 0.0 0.01 0.57 0.57 82 996.6
20260831193505 56 155 0.0 0.0 0.00 0.56 0.56 82 996.5
20260831193005 56 155 0.0 0.0 0.00 0.56 0.56 82 996.5
20260831192504 56 155 0.0 0.0 0.00 0.56 0.56 83 996.5
20260831192004 56 155 0.0 0.0 0.00 0.56 0.56 83 996.5
20260831191504 56 155 0.0 0.0 0.01 0.56 0.56 83 996.5
20260831191004 56 155 0.0 0.0 0.01 0.56 0.56 83 996.6
20260831190505 56 155 0.0 0.0 0.02 0.56 0.56 83 996.7
20260831185504 56 155 0.0 0.0 0.02 0.56 0.56 83 996.7
20260831185004 56 155 0.0 0.0 0.03 0.56 0.56 84 996.6
20260831184504 56 155 0.0 0.0 0.04 0.56 0.56 84 996.5
20260831184005 56 155 0.0 0.0 0.04 0.56 0.56 84 996.5
20260831183505 56 155 0.0 0.0 0.04 0.56 0.56 84 996.6
20260831183004 56 155 0.0 0.0 0.04 0.56 0.56 84 996.6
20260831182504 56 155 0.0 0.0 0.04 0.56 0.56 84 996.7
20260831182004 57 155 0.0 0.0 0.04 0.56 0.56 84 996.7
20260831181504 57 155 0.0 0.0 0.03 0.55 0.55 84 996.7
20260831181004 57 155 0.0 0.0 0.03 0.55 0.55 85 996.7
20260831180004 57 155 0.0 0.0 0.02 0.54 0.54 85 996.7
20260831175504 57 155 0.0 0.0 0.02 0.54 0.54 85 996.7
20260831175005 57 155 0.0 0.0 0.01 0.53 0.53 85 996.8
20260831174505 57 155 0.0 0.0 0.00 0.52 0.52 85 996.7
20260831174005 57 155 0.0 0.0 0.00 0.52 0.52 86 996.7
20260831173504 57 155 0.0 0.0 0.00 0.52 0.52 85 996.7
20260831173004 57 155 0.0 0.0 0.00 0.52 0.52 86 996.7
20260831172504 57 155 0.0 0.0 0.00 0.52 0.52 86 996.7
20260831172005 57 155 0.0 0.0 0.00 0.52 0.52 86 996.8
20260831171504 58 155 0.0 0.0 0.00 0.52 0.52 86 996.8
20260831171004 58 155 0.0 0.0 0.00 0.52 0.52 86 996.7
20260831170504 58 155 0.0 0.0 0.00 0.52 0.52 86 996.6
20260831170004 58 155 0.0 0.0 0.00 0.52 0.52 86 996.6
20260831165505 58 155 0.0 0.0 0.00 0.52 0.52 86 996.6
20260831165005 58 155 0.0 0.0 0.00 0.52 0.52 86 996.6
20260831164504 58 155 0.0 0.0 0.00 0.52 0.52 86 996.7
20260831164004 58 155 0.0 0.0 0.00 0.52 0.52 86 996.8
20260831163504 58 155 0.0 0.0 0.00 0.52 0.52 86 996.8
20260831163004 59 155 0.0 0.0 0.00 0.52 0.52 86 996.8
20260831162504 59 155 0.0 0.0 0.00 0.52 0.52 86 996.8
20260831162004 59 155 0.0 0.0 0.00 0.52 0.52 86 996.7
20260831161504 59 155 0.0 0.0 0.00 0.52 0.52 86 996.7
20260831155504 59 155 0.0 0.0 0.00 0.52 0.52 87 996.7
20260831155004 59 155 0.0 0.0 0.00 0.52 0.52 87 996.7
20260831154504 59 155 0.0 0.0 0.00 0.52 0.52 87 996.8
20260831154005 59 155 0.0 0.0 0.00 0.52 0.52 87 996.8
20260831153504 59 155 0.0 0.0 0.01 0.52 0.52 87 996.8
20260831152504 59 155 0.0 0.0 0.01 0.52 0.52 87 996.8
20260831152004 59 155 0.0 0.0 0.01 0.52 0.52 87 996.8
20260831151005 59 155 0.0 0.0 0.01 0.52 0.52 87 996.8
20260831150504 59 155 0.0 0.0 0.01 0.52 0.52 88 996.8
20260831145504 59 155 0.0 0.0 0.01 0.52 0.52 87 996.8
20260831145004 59 155 0.0 0.0 0.02 0.52 0.52 87 996.9
20260831144504 59 155 0.0 0.0 0.03 0.52 0.52 87 996.9
20260831144005 59 155 0.0 0.0 0.04 0.52 0.52 88 996.9
20260831143505 59 155 0.0 0.0 0.05 0.51 0.51 88 996.9
20260831143004 59 155 0.0 0.0 0.51 0.51 0.51 88 996.9
20260831142505 59 155 0.0 0.0 0.51 0.51 0.51 88 996.9
20260831142005 59 155 0.0 0.0 0.51 0.51 0.51 88 997.0
20260831141505 59 155 0.0 0.0 0.51 0.51 0.51 88 997.0
20260831141004 59 155 0.0 0.0 0.51 0.51 0.51 88 997.0
20260831140504 59 155 0.0 0.0 0.51 0.51 0.51 88 997.0
20260831135505 59 155 0.0 0.0 0.51 0.51 0.51 88 997.0
20260831135004 59 155 0.0 0.0 0.50 0.50 0.50 88 997.0
20260831134505 59 155 0.0 0.0 0.49 0.49 0.49 89 997.0
20260831134005 59 155 0.0 0.0 0.48 0.48 0.48 89 997.1
20260831133005 59 155 0.0 0.0 0.00 0.00 0.00 89 997.1
20260831132504 60 155 0.0 0.0 0.00 0.00 0.00 89 997.1
20260831132004 59 155 0.0 0.0 0.00 0.00 0.00 89 997.1
20260831131504 59 155 0.0 0.0 0.00 0.00 0.00 89 997.1
20260831131004 60 155 0.0 0.0 0.00 0.00 0.00 89 997.1
20260831130504 59 155 0.0 0.0 0.00 0.00 0.00 89 997.1
20260831130004 59 155 0.0 0.0 0.00 0.00 0.00 89 997.0
20260831125504 59 155 0.0 0.0 0.00 0.00 0.00 89 997.0